Home   Weather   Buenos Aires   Past weeks
Flag for Argentina

Past Weather in Buenos Aires, Argentina — Yesterday and Last 2 Weeks

Now
68 °F

Passing clouds.


Feels Like: 68 °F
Forecast: N/A
Wind: 9 mph from West

Location: Buenos Aires Airport

Current Time: Oct 22, 2019 at 7:32:18 pm

Latest Report: Oct 22, 2019 at 7:00 pm


Visibility: N/A

Pressure: 29.95 "Hg

Humidity: 30%

Dew Point: 36 °F

Location of Buenos AiresLocation

Past Weather in Buenos Aires — Graph

°F

Buenos Aires Temperature Yesterday

Maximum temperature yesterday: 64 °F (at 3:00 pm)
Minimum temperature yesterday: 57 °F (at 1:00 am)
Average temperature yesterday: 59 °F

High & Low Weather Summary for the Past Weeks

 TemperatureHumidityPressure
High79 °F (Oct 8, 2:00 pm)100% (Oct 12, 8:00 am)30.45 "Hg (Oct 12, 8:00 am)
Low48 °F (Oct 14, 6:00 am)15% (Oct 8, 4:00 pm)29.59 "Hg (Oct 11, 2:00 am)
Average63 °F73%30.03 "Hg
* Reported Oct 7 6:00 pm — Oct 22 6:00 pm, Buenos Aires. Weather by CustomWeather, © 2019

Note: Actual official high and low records may vary slightly from our data, if they occured in-between our weather recording intervals... More about our weather records

Advertising

Buenos Aires Weather History for the Previous 24 Hours

Scroll right to see more
 ConditionsComfort  
Time TempWeatherWind HumidityBarometerVisibility
6:00 pm
Tue, Oct 22
70 °FPassing clouds.10 mph29%29.95 "HgN/A
5:00 pm72 °FPassing clouds.12 mph29%29.95 "HgN/A
4:00 pm72 °FPassing clouds.9 mph31%29.95 "HgN/A
3:00 pm70 °FPassing clouds.13 mph31%29.98 "HgN/A
2:00 pm70 °FPassing clouds.13 mph29%30.01 "HgN/A
1:00 pm68 °FPassing clouds.10 mph30%30.01 "HgN/A
12:00 pm68 °FPassing clouds.12 mph26%30.04 "HgN/A
11:00 am66 °FPassing clouds.10 mph30%30.04 "HgN/A
10:00 am66 °FPassing clouds.9 mph32%30.04 "HgN/A
9:00 am66 °FPassing clouds.10 mph32%30.01 "HgN/A
8:00 am61 °FPassing clouds.6 mph59%30.01 "HgN/A
7:00 am57 °FPassing clouds.6 mph82%30.01 "HgN/A
6:00 am57 °FPassing clouds.8 mph82%29.98 "HgN/A
5:00 am55 °FPassing clouds.6 mph82%29.98 "Hg0 mi
4:00 am55 °FClear.6 mph77%29.98 "Hg10 mi
3:00 am57 °FPassing clouds.6 mph77%29.98 "HgN/A
2:00 am57 °FPassing clouds.8 mph82%29.98 "HgN/A
1:00 am61 °FPassing clouds.10 mph83%29.98 "HgN/A
12:00 am63 °FClear.9 mph73%30.01 "Hg10 mi
11:00 pm
Mon, Oct 21
63 °FClear.6 mph68%30.01 "Hg10 mi
10:00 pm61 °FPassing clouds.6 mph72%30.01 "HgN/A
9:00 pm61 °FClear.6 mph68%29.98 "Hg10 mi
8:00 pm63 °FClear.5 mph64%29.98 "Hg10 mi
7:00 pm61 °FPassing clouds.6 mph68%29.98 "HgN/A
Weather by CustomWeather, © 2019

See weather overview